#timestamp,LO_Frequency,Hit,StdDev 
1653616815.8,286047000.5,N
1653616835.6,286046999.8,N
1653616855.5,286047000.9,N
1653616875.3,286047001.1,N
1653616895.1,286047000.0,N
1653616915.9,286047001.0,N
1653616935.7,286046999.8,N
1653616955.5,286047002.4,Y
1653616975.4,286047002.1,P
1653616995.2,286047001.5,N
1653617015.1,286047002.3,N
1653617016.0,286047002.3,N
1653617035.8,286047001.8,N
1653617055.6,286047001.5,N
1653617075.5,286047002.4,Y
1653617095.3,286046998.1,P
1653617115.2,286047001.1,N
1653617135.9,286047001.2,N
1653617155.7,286046998.2,N
1653617205.6,286046998.6,E
1653617215.5,286047000.4,N
1653617235.3,286046999.7,P
1653617255.2,286047000.4,N
1653617275.0,286046998.3,Y
1653617275.9,286046998.3,P
1653617295.8,286047000.9,N
1653617315.6,286047000.6,N
1653617335.4,286047000.4,N
1653617355.3,286047000.1,N
1653617375.1,286047002.7,Y
1653617395.9,286047002.6,P
1653617415.7,286046999.8,N
1653617435.5,286047002.5,N
1653617455.4,286047002.4,N
1653617475.2,286047002.4,N
1653617495.0,286046999.9,N
1653617495.9,286046999.9,N
1653617515.8,286047001.0,N
1653617535.6,286047000.5,N
1653617555.5,286046998.2,N
1653617575.3,286046998.2,N
1653617595.2,286047000.4,N
1653617615.0,286047000.3,N
1653617615.9,286047000.3,N
1653617635.8,286047000.0,N
1653617655.6,286047001.0,N
1653617675.4,286047001.1,N
1653617695.3,286047002.4,N
1653617715.1,286047002.8,N
1653617735.9,286047002.8,N
1653617755.7,286047002.4,N
1653617775.5,286047002.7,N
1653617795.4,286046999.8,N
1653617815.2,286047000.1,N
1653617835.0,286047002.4,N
1653617836.0,286047002.4,N
1653617855.8,286047002.6,N
1653617875.6,286047002.4,N
1653617895.5,286047002.0,N
1653617915.3,286047002.3,N
1653617935.1,286047002.8,N
1653617955.9,286047000.0,N
1653617975.7,286047000.3,N
1653617995.5,286047000.6,N
1653618015.4,286047002.4,N
1653618035.2,286047002.3,N
1653618055.1,286047002.1,N
1653618056.0,286047002.1,N
1653618075.8,286047002.0,N
1653618095.6,286047001.9,N
1653618115.5,286047002.5,N
1653618135.3,286047002.5,N
1653618155.1,286047002.2,N
1653618175.9,286047001.8,N
1653618195.7,286047002.6,N
1653618215.6,286047002.4,N
1653618235.4,286047000.3,N
1653618255.2,286047000.1,N
1653618275.1,286047002.7,N
1653618276.0,286047002.7,N
1653618295.8,286047002.4,N
1653618315.7,286047001.9,N
1653618335.5,286047002.5,N
1653618355.3,286047001.6,N
1653618375.2,286047001.6,N
1653618395.9,286047002.3,N
1653618415.7,286047002.4,N
1653618435.6,286047002.4,N
1653618455.4,286047001.9,N
1653618475.3,286047001.6,N
1653618495.1,286047001.3,N
1653618496.0,286047001.3,N
1653618515.8,286047001.5,N
1653618535.7,286047001.8,N
1653618555.5,286047001.4,N
1653618575.3,286047001.6,N
1653618595.2,286047001.8,N
1653618615.0,286047001.8,N
1653618615.9,286047001.8,N
1653618635.8,286047002.0,Y
1653618655.6,286047002.8,P
1653618675.4,286047002.3,P
1653618695.3,286047002.7,P
1653618715.1,286047000.0,N
1653618735.9,286047000.8,N
1653618755.7,286047000.9,N
1653618775.5,286046998.4,N
1653618795.4,286047001.1,N
1653618815.2,286046998.3,N
1653618835.1,286046999.0,N
1653618836.0,286046999.0,N
1653618855.8,286046998.9,N
1653618875.6,286046998.1,N
1653618895.5,286046998.8,N
1653618915.3,286046998.2,N
1653618935.1,286047000.8,N
1653618955.9,286047000.9,N
1653618975.7,286047000.5,N
1653618995.6,286047000.0,N
1653619015.4,286047000.0,N
1653619035.2,286047001.2,N
1653619055.1,286046998.1,N
1653619056.0,286046998.1,N
1653619075.8,286047000.5,N
1653619095.6,286047002.7,N
1653619115.5,286047002.4,N
1653619135.3,286047001.8,N
1653619155.2,286047001.4,N
1653619175.9,286047001.4,N
1653619195.7,286047001.3,N
1653619215.6,286047004.1,N
1653619235.4,286047001.6,N
1653619255.2,286047002.7,N
1653619275.1,286047000.1,N
1653619276.0,286047000.1,N
1653619295.8,286047002.7,N
1653619315.7,286047000.9,N
1653619335.5,286046999.9,N
1653619355.3,286046998.1,N
1653619375.2,286047000.9,N
1653619395.0,286047000.9,N
1653619395.9,286047000.9,N
1653619415.8,286046999.4,N
1653619435.6,286046998.9,N
1653619455.4,286046999.2,N
1653619475.3,286046998.9,N
1653619495.1,286046996.7,N
1653619515.8,286046996.7,N
1653619535.7,286046998.0,N
1653619555.5,286046997.4,N
1653619575.4,286046997.9,N
1653619595.2,286046995.8,N
1653619615.0,286046996.0,N
1653619615.9,286046996.0,N
1653619635.8,286046993.5,N
1653619655.6,286046993.3,N
1653619675.5,286046995.2,N
1653619695.3,286046998.0,N
1653619715.1,286046995.7,N
1653619735.9,286046998.0,N
1653619755.7,286046994.9,N
1653619775.5,286046997.6,N
1653619795.4,286046997.9,N
1653619815.2,286046997.9,N
1653619835.1,286046996.3,N
1653619836.0,286046996.3,N
1653619855.8,286046995.2,N
1653619875.6,286046995.5,N
1653619895.5,286046995.6,N
1653619915.3,286046995.1,N
1653619935.1,286046995.7,N
1653619955.9,286047011.9,Y
1653619975.7,286046999.4,P
1653619995.6,286046999.0,N
1653620015.4,286046998.3,N
1653620035.2,286046999.0,N
1653620055.1,286046999.6,N
1653620056.0,286046999.6,N
1653620075.8,286046997.3,N
1653620095.7,286046999.3,N
1653620115.5,286046999.0,N
1653620135.3,286046998.2,N
1653620155.2,286046998.6,N
1653620175.0,286047001.1,N
1653620175.9,286047001.1,N
1653620195.7,286047001.0,N
1653620215.6,286047000.8,N
1653620235.5,286046998.5,N
1653620255.3,286046998.9,N
1653620275.1,286046998.1,N
1653620295.9,286046998.5,N
1653620315.7,286046998.5,N
1653620335.6,286046998.3,N
1653620355.4,286046996.7,N
1653620375.2,286046997.6,N
1653620395.1,286046997.4,N
1653620396.0,286046997.4,N
